{"data":{"norad_id":65975,"epoch":"2026-05-24T23:41:35.508192Z","epoch_age_seconds":80087,"freshness":"FRESH","line1":"1 65975U 25230B   26144.98721653  .00000121  00000+0  10133-3 0  9996","line2":"2 65975  81.3018 233.3416 0001243 107.4999 252.6293 13.82038131 30592","mean_motion":13.82038131,"eccentricity":0.0001243,"inclination_deg":81.3018,"raan_deg":233.3416,"arg_perigee_deg":107.4999,"mean_anomaly_deg":252.6293,"bstar":0.00010133,"rev_number":3059,"period_min":104.19394137541,"perigee_km":955.75490881225,"apogee_km":957.5783409934,"semimajor_km":7334.8036249028,"source":"CELESTRAK","updated_at":"2026-05-25T13:38:05.876406Z"}}